Regional Weather Roundup
Issued by NWS

Home | Current Version | Previous Version | Graphics & Text | Print | Product List | Glossary On
Versions: 1 2 3 4 5 6 7 8 9 10 11 12 13 14 15 16 17 18 19 20 21 22 23 24 25 26 27 28 29 30 31 32 33 34 35 36 37 38 39 40 41 42 43 44 45 46 47 48 49 50
000
ASUS43 KOAX 221202
RWRNE

WEATHER ROUNDUP FOR NEBRASKA
NATIONAL WEATHER SERVICE OMAHA NE
700 AM CDT TUE JUL 22 2014

NOTES: SATELLITE DATA IS BEING USED TO AUGMENT CLOUD COVER ABOVE
       12000 FEET.
       "FAIR" INDICATES FEW OR NO CLOUDS BELOW 12,000 FEET WITH NO
       SIGNIFICANT WEATHER AND/OR OBSTRUCTIONS TO VISIBILITY.

  * THESE STATIONS DO NOT REPORT WEATHER SUCH AS RAIN...SNOW OR FOG.

NEZ001>004-019>022-054>056-221300-
NEBRASKA PANHANDLE

CITY           SKY/WX    TMP DP  RH WIND       PRES   REMARKS
SCOTTSBLUFF    CLEAR     68  60  75 CALM      30.20R
6HR MIN TEMP:  63; 6HR MAX TEMP:  71;

ALLIANCE       CLEAR     63  60  90 N7        30.18R
6HR MIN TEMP:  63; 6HR MAX TEMP:  81;

CHADRON        PTCLDY    64  60  87 NW3       30.20R
6HR MIN TEMP:  63; 6HR MAX TEMP:  78;

KIMBALL        CLEAR     61  49  64 W8        30.22R
SIDNEY         CLEAR     61  51  70 NW9       30.19R
6HR MIN TEMP:  60; 6HR MAX TEMP:  77;

$$

NEZ057>060-069>072-079>082-221300-
SOUTHWEST NEBRASKA

CITY           SKY/WX    TMP DP  RH WIND       PRES   REMARKS
NORTH PLATTE   PTCLDY    73  59  61 E16       30.08R
6HR MIN TEMP:  71; 6HR MAX TEMP:  84;

IMPERIAL       PTCLDY    69  60  73 NE10      30.10R
6HR MIN TEMP:  64; 6HR MAX TEMP:  77;

LEXINGTON      PTCLDY    73  62  69 N5        30.08R
MCCOOK         CLEAR     68  63  84 E3        30.08F
6HR MIN TEMP:  66; 6HR MAX TEMP:  77;

OGALLALA       PTCLDY    72  56  58 NE9       30.10R
$$

NEZ005>010-023>029-035>040-094-221300-
NORTH CENTRAL NEBRASKA

CITY           SKY/WX    TMP DP  RH WIND       PRES   REMARKS
VALENTINE      CLOUDY    69  64  84 NE6       30.07F
6HR MIN TEMP:  69; 6HR MAX TEMP:  82; 6HR PCP: TRACE;

AINSWORTH      CLOUDY    70  61  73 E7        30.06F
BROKEN BOW     CLEAR     70  63  78 N8        30.10R
6HR MIN TEMP:  70; 6HR MAX TEMP:  80;

O`NEILL        PTCLDY    66  60  79 SW5       30.06F
THEDFORD       MOCLDY    73  62  68 E10       30.08F
$$

NEZ041-046>049-061>064-073>077-083>087-221300-
SOUTH CENTRAL NEBRASKA

CITY           SKY/WX    TMP DP  RH WIND       PRES   REMARKS
GRAND ISLAND   PTCLDY    76  64  66 N15       30.04R
6HR MIN TEMP:  73; 6HR MAX TEMP:  86;

AURORA         PTCLDY    75  68  79 NW6       30.02R
HASTINGS       PTCLDY    73  64  73 W8        30.04R
6HR MIN TEMP:  72; 6HR MAX TEMP:  84;

HEBRON         PTCLDY    73  68  85 W3        30.02R
HOLDREGE       MOCLDY    72  64  75 NW5       30.06R
KEARNEY *      PTCLDY    75  63  64 N8        30.07R
YORK           MOCLDY    73  72  94 NW9       30.01R
$$

NEZ011>018-030>034-042>045-221300-
NORTHEAST NEBRASKA

CITY           SKY/WX    TMP DP  RH WIND       PRES   REMARKS
NORFOLK        PTCLDY    73  63  70 N9        30.02R
6HR MIN TEMP:  73; 6HR MAX TEMP:  85;

ALBION         PTCLDY    73  59  62 N9        30.02R
BLAIR          MOCLDY    81  59  48 W6        29.95R
COLUMBUS *     CLOUDY    77  64  65 N9G20     30.01R
FREMONT        CLOUDY    81  72  74 W7        29.97R
TEKAMAH        MOCLDY    83  72  69 NW13      29.96R
6HR MIN TEMP:  80; 6HR MAX TEMP:  86;

WAYNE          PTCLDY    72  66  81 N15       29.99R
$$

NEZ050>053-065>068-078-088>093-221300-
SOUTHEAST NEBRASKA

CITY           SKY/WX    TMP DP  RH WIND       PRES   REMARKS
LINCOLN        PTCLDY    76  69  79 S7        29.98R
6HR MIN TEMP:  76; 6HR MAX TEMP:  87;

OMAHA EPPLEY   MOCLDY    83  70  64 S6        29.93R
6HR MIN TEMP:  82; 6HR MAX TEMP:  90; 6HR PCP: TRACE;

BEATRICE       CLEAR     71  69  93 CALM      29.99R
FALLS CITY     MOCLDY    77  74  90 S3        29.97R FOG
6HR MIN TEMP:  77; 6HR MAX TEMP:  82;

NEBRASKA CITY  PTCLDY    76  72  88 SW3       29.98R
PLATTSMOUTH    MOCLDY    79  69  73 S8        29.96R
$$

NEZ044-045-051>053-067-221300-
OMAHA AREA

CITY           SKY/WX    TMP DP  RH WIND       PRES   REMARKS
OMAHA EPPLEY   MOCLDY    83  70  64 S6        29.93R
6HR MIN TEMP:  82; 6HR MAX TEMP:  90; 6HR PCP: TRACE;

BLAIR          MOCLDY    81  59  48 W6        29.95R
FREMONT        CLOUDY    81  72  74 W7        29.97R
MILLARD        MOCLDY    82  71  68 CALM      29.94R
OFFUTT AFB     MOCLDY    80  73  78 SW3       29.94R
PLATTSMOUTH    MOCLDY    79  69  73 S8        29.96R
WAHOO          FAIR      77  71  82 NW5       29.97R
$$



USA.gov is the U.S. government's official web portal to all federal, state and local government web resources and services.